Flag for Germany Past Weather in Neumarkt in der Oberpfalz, Bavaria, Germany — Yesterday and Last 2 Weeks

Now
66 °F

Light rain. Scattered clouds.


Feels Like: 66 °F
Forecast: 55 / 62 °F
Wind: 2 mph from North

Location: Hohenfels

Current Time: May 29, 2016 at 11:53:11 AM

Latest Report: May 29, 2016 at 11:00 AM


Visibility: N/A

Pressure: 29.75 "Hg

Humidity: 83%

Dew Point: 61 °F

Location of Neumarkt in der OberpfalzLocation

Past Weather in Neumarkt in der Oberpfalz — Graph

°F

Neumarkt in der Oberpfalz Temperature Yesterday

Maximum temperature yesterday: 73 °F (at 12:58 PM)
Minimum temperature yesterday: 54 °F (at 2:58 AM)
Average temperature yesterday: 62 °F

High & Low Weather Summary for the Past Weeks

 TemperatureHumidityPressure
High82 °F (May 22, 4:58 PM)100% (May 15, 9:58 PM)30.16 "Hg (May 15, 9:58 PM)
Low32 °F (May 18, 2:58 AM)32% (May 22, 3:58 PM)29.68 "Hg (May 14, 9:58 AM)
Average54 °F78%29.97 "Hg
* Reported May 14 9:58 AM — May 29 9:58 AM, Neumarkt in der Oberpfalz, Weather by CustomWeather, © 2016

Note: Actual official high and low records may vary slightly from our data, if they occured in-between our weather recording intervals... More about our weather records

Advertising

Neumarkt in der Oberpfalz Weather History for the Previous 24 Hours

Scroll right to see more
 ConditionsComfort  
Time TempWeatherWind HumidityBarometerVisibility
9:58 AM
Sun, May 29
66 °FPassing clouds.5 mph83%29.73 "HgN/A
8:58 AM61 °FScattered clouds.No wind100%29.74 "HgN/A
8:03 AM57 °FPartly sunny.2 mph100%29.79 "HgN/A
6:58 AM55 °FLight rain. Broken clouds.3 mph100%29.76 "HgN/A
5:58 AM54 °FPassing clouds.3 mph100%29.75 "HgN/A
5:04 AM52 °FFog.1 mph100%29.78 "Hg2 mi
4:58 AM52 °FPassing clouds.No wind100%29.77 "HgN/A
4:02 AM52 °FFog.1 mph100%29.78 "Hg1 mi
2:58 AM54 °FFog.No wind94%29.75 "Hg1 mi
1:58 AM55 °FPassing clouds.3 mph100%29.79 "HgN/A
1:02 AM55 °FFog.1 mph100%29.82 "Hg1 mi
12:59 AM55 °FFog.No wind100%29.81 "Hg1 mi
12:02 AM55 °FFog.3 mph100%29.83 "Hg2 mi
10:58 PM
Sat, May 28
59 °FFog.3 mph100%29.81 "Hg5 mi
9:58 PM59 °FFog.3 mph100%29.83 "Hg5 mi
9:03 PM61 °FFog.No wind100%29.87 "Hg0 mi
7:58 PM64 °FOvercast.2 mph94%29.85 "HgN/A
6:58 PM64 °FPartly sunny.5 mph100%29.85 "HgN/A
5:58 PM64 °FThundershowers. Partly sunny.1 mph100%29.87 "HgN/A
4:58 PM64 °FThundershowers. Mostly cloudy.2 mph100%29.88 "HgN/A
3:58 PM66 °FThunderstorms. Low clouds.3 mph83%29.88 "HgN/A
2:58 PM73 °FBroken clouds.2 mph53%29.87 "HgN/A
1:58 PM73 °FScattered clouds.2 mph57%29.88 "HgN/A
12:58 PM73 °FSunny.No wind61%29.89 "HgN/A
11:58 AM72 °FPassing clouds.8 mph69%29.91 "HgN/A
Weather by CustomWeather, © 2016

See weather overviewHow to use our weather pages